Location: Clinton NY
(43.0598°N, 75.3602°W)
Time: 09:35:45
(UTC-05:00)

Amateur Radio Satellites - All Passes

Search period start: 10 December 2016 09:05
Search period end: 11 December 2016 09:05
Location: Clinton NY, 43.0598°N, 75.3602°W

Satellite Date Start Highest point End Downlink Frequencies (MHz)
Time Altitude Azimuth
Oscar 11 10 Dec 09:07:31 09:11:50 75° 103° (ESE) 09:16:07 145.826/435.025
TIGRISAT 10 Dec 09:10:34 09:15:11 62° 74° (ENE) 09:19:44 435.000
CUBEBUG 2 10 Dec 09:11:50 09:15:46 34° 291° (WNW) 09:19:36 437.445
ANTELSAT 10 Dec 09:13:16 09:17:55 70° 74° (ENE) 09:22:30 437.575/2403.000
Cosmos 2491 10 Dec 09:20:40 09:24:05 12° 307° (NW) 09:27:29 435.465 / 435.565
DANDE 10 Dec 09:22:06 09:25:57 41° 98° (E) 09:29:01 436.750
HUMSAT D 10 Dec 09:25:02 09:28:10 21° 94° (E) 09:31:18 437.325/437.525
GONETS M04 10 Dec 09:28:59 09:34:38 18° 59° (ENE) 09:40:16
CUSAT 1 10 Dec 09:33:23 09:35:32 20° 285° (WNW) 09:37:35 437.405
JAS-2 10 Dec 09:39:30 09:44:53 33° 67° (ENE) 09:49:48 435.910
PCSat 10 Dec 09:40:44 09:45:20 29° 109° (ESE) 09:49:59 145.827
Cosmos 2499 10 Dec 09:42:39 09:49:10 24° 62° (ENE) 09:55:20 435.465 / 435.565
AO-85 10 Dec 09:43:10 09:47:10 80° 236° (SW) 09:51:01 145.980
UWE-3 10 Dec 09:44:38 09:48:05 24° 293° (WNW) 09:51:27 435.000/436.395/437.385
AAUSAT CUBESAT 2 10 Dec 09:49:59 09:52:29 16° 296° (WNW) 09:55:00 437.432
NANOSAT C BR1 10 Dec 09:55:38 09:58:51 21° 66° (ENE) 10:02:04 145.865
RS-15 10 Dec 10:05:10 10:15:31 31° 339° (NNW) 10:26:07 29.354- 29.394
QB50P2 10 Dec 10:05:35 10:09:19 30° 69° (ENE) 10:13:04 145.880/145.840
DELFI C3 10 Dec 10:05:44 10:09:41 64° 286° (WNW) 10:13:38 145.870
POLYITAN 1 10 Dec 10:06:02 10:09:43 29° 69° (ENE) 10:13:26 437.675
DUCHIFAT 1 10 Dec 10:14:42 10:18:25 30° 69° (ENE) 10:22:09 145.980
ZACube-1 10 Dec 10:15:18 10:18:14 19° 295° (WNW) 10:21:10 437.345
QB50P1 10 Dec 10:17:11 10:21:07 37° 70° (ENE) 10:25:05 145.935-145.965
UNISAT 6 10 Dec 10:19:37 10:23:30 25° 266° (W) 10:27:20 437.425
FUNcube-1 10 Dec 10:20:16 10:23:07 18° 295° (WNW) 10:25:57 145.935
ESTCUBE 1 10 Dec 10:20:16 10:22:26 13° 90° (E) 10:24:34 437.505/2401.250
HO-68 10 Dec 10:25:49 10:29:06 14° 311° (NW) 10:32:22 435.675
POPSAT HIP 1 10 Dec 10:38:52 10:43:05 63° 74° (ENE) 10:47:21 437.405
Oscar 11 10 Dec 10:45:53 10:47:21 12° 299° (WNW) 10:48:48 145.826/435.025
TIGRISAT 10 Dec 10:49:44 10:52:13 14° 270° (W) 10:54:43 435.000
BUGSAT 1 10 Dec 10:52:01 10:55:43 30° 69° (ENE) 10:59:26 437.445
ANTELSAT 10 Dec 10:53:02 10:55:02 13° 271° (W) 10:57:03 437.575/2403.000
HUMSAT D 10 Dec 11:00:13 11:03:50 31° 290° (WNW) 11:07:26 437.325/437.525
Oscar 19 10 Dec 11:16:05 11:19:21 17° 60° (ENE) 11:22:39 437.125/150
BEESAT 3 10 Dec 11:17:05 11:19:59 19° 42° (NE) 11:22:51 437.485
50 SAT 10 Dec 11:20:42 11:22:58 16° 93° (E) 11:25:14 437.505
PCSat 10 Dec 11:23:24 11:28:32 43° 307° (NW) 11:33:44 145.827
GONETS M04 10 Dec 11:24:09 11:32:56 83° 82° (E) 11:41:43
JAS-2 10 Dec 11:24:12 11:29:56 37° 262° (W) 11:35:08 435.910
NANOSAT C BR1 10 Dec 11:30:23 11:34:20 36° 262° (W) 11:38:18 145.865
Cosmos 2499 10 Dec 11:34:49 11:43:22 78° 265° (W) 11:51:12 435.465 / 435.565
AISAT 10 Dec 11:41:17 11:45:30 39° 98° (E) 11:49:41 437.250
QB50P2 10 Dec 11:41:35 11:45:07 25° 265° (W) 11:48:39 145.880/145.840
POLYITAN 1 10 Dec 11:41:52 11:45:29 26° 265° (W) 11:49:06 437.675
Gurwin Techsat 1B 10 Dec 11:50:20 11:54:00 19° 61° (ENE) 11:57:41 435.225
DUCHIFAT 1 10 Dec 11:50:36 11:54:05 25° 265° (W) 11:57:37 145.980
QB50P1 10 Dec 11:53:50 11:57:00 20° 267° (W) 12:00:11 145.935-145.965
CUBEBUG 1 10 Dec 11:54:16 11:58:45 80° 104° (ESE) 12:03:10 437.445
ESTCUBE 1 10 Dec 11:55:10 11:59:38 63° 287° (WNW) 12:04:07 437.505/2401.250
BEESAT 2 10 Dec 11:56:28 11:59:39 22° 44° (NE) 12:02:47 435.950
UKube-1 10 Dec 12:12:33 12:16:26 31° 97° (E) 12:20:18 .
SPROUT 10 Dec 12:14:43 12:18:58 59° 100° (E) 12:23:10 437.525
DX 1 10 Dec 12:14:52 12:19:06 45° 99° (E) 12:23:18 434.975-435.025
POPSAT HIP 1 10 Dec 12:17:37 12:19:16 12° 270° (W) 12:20:56 437.405
VELOX 1 10 Dec 12:17:41 12:22:10 88° 285° (WNW) 12:26:37 145.980
RS-15 10 Dec 12:23:06 12:33:18 28° 14° (NNE) 12:43:26 29.354- 29.394
BUGSAT 1 10 Dec 12:27:33 12:31:03 25° 265° (W) 12:34:36 437.445
AO-7 10 Dec 12:41:35 12:47:17 21° 49° (NE) 12:53:02 29.400- 29.500
Oscar 19 10 Dec 12:53:02 12:58:07 66° 258° (WSW) 13:03:17 437.125/150
50 SAT 10 Dec 12:53:08 12:56:21 32° 289° (WNW) 12:59:33 437.505
BEESAT 3 10 Dec 12:54:00 12:57:53 52° 241° (WSW) 13:01:45 437.485
PCSat 10 Dec 13:12:33 13:13:26 10° 330° (NNW) 13:14:20 145.827
AISAT 10 Dec 13:18:19 13:21:42 21° 295° (WNW) 13:25:05 437.250
TISAT 1 10 Dec 13:19:12 13:23:18 47° 100° (E) 13:27:21 437.305
ISS 10 Dec 13:20:10 13:21:00 11° 130° (SE) 13:21:50 145.825
GONETS M04 10 Dec 13:22:39 13:28:38 21° 282° (WNW) 13:34:38
Gurwin Techsat 1B 10 Dec 13:28:12 13:33:27 62° 259° (WSW) 13:38:45 435.225
Cosmos 2499 10 Dec 13:30:40 13:34:51 15° 286° (WNW) 13:38:54 435.465 / 435.565
ITAMSAT 1 10 Dec 13:32:32 13:37:16 36° 67° (ENE) 13:42:00 435.822/435.867
CUBEBUG 1 10 Dec 13:32:49 13:34:21 12° 300° (WNW) 13:35:54 437.445
BEESAT 2 10 Dec 13:33:46 13:37:37 43° 242° (WSW) 13:41:26 435.950
M-CUBED/EXP-1 PRIME 10 Dec 13:47:23 13:49:55 15° 94° (E) 13:52:24 437.505
UKube-1 10 Dec 13:48:48 13:52:21 25° 294° (WNW) 13:55:52 .
DX 1 10 Dec 13:51:53 13:54:57 19° 296° (WNW) 13:58:00 434.975-435.025
SPROUT 10 Dec 13:52:08 13:54:24 14° 298° (WNW) 13:56:39 437.525
VELOX 1 10 Dec 13:57:17 13:57:53 10° 301° (WNW) 13:58:30 145.980
SWISSCUBE 10 Dec 13:57:27 14:01:31 27° 96° (E) 14:05:32 437.505
BEESAT 10 Dec 14:01:00 14:05:00 26° 95° (E) 14:08:59 436.000
MOZHAYETS 4 10 Dec 14:25:10 14:26:38 11° 89° (E) 14:28:07
O/OREOS (USA 219) 10 Dec 14:26:03 14:30:05 32° 104° (ESE) 14:34:06 437.305
AO-7 10 Dec 14:30:34 14:38:52 82° 69° (ENE) 14:47:15 29.400- 29.500
ITUPSAT 1 10 Dec 14:31:34 14:36:14 52° 100° (E) 14:40:52 437.325
RS-15 10 Dec 14:37:07 14:49:20 58° 46° (NE) 15:01:10 29.354- 29.394
ISS 10 Dec 14:53:43 14:56:59 85° 147° (SSE) 15:00:18 145.825
TISAT 1 10 Dec 14:55:53 14:58:34 17° 296° (WNW) 15:01:12 437.305
AUBIESAT-1 10 Dec 15:03:36 15:08:10 74° 108° (ESE) 15:12:28 437.475
AIST 2 10 Dec 15:06:38 15:10:44 47° 51° (NE) 15:14:49 435.215
ITAMSAT 1 10 Dec 15:12:15 15:16:46 29° 264° (W) 15:21:18 435.822/435.867
M-CUBED/EXP-1 PRIME 10 Dec 15:20:12 15:24:49 62° 292° (WNW) 15:29:10 437.505
Cosmos 2491 10 Dec 15:30:42 15:35:34 16° 57° (ENE) 15:40:23 435.465 / 435.565
SWISSCUBE 10 Dec 15:35:02 15:39:18 33° 292° (WNW) 15:43:33 437.505
BEESAT 10 Dec 15:38:31 15:42:48 34° 292° (WNW) 15:47:04 436.000
CUTE-I 10 Dec 15:45:55 15:47:45 12° 56° (NE) 15:49:36 437.470
STARS 10 Dec 15:46:46 15:49:23 15° 91° (E) 15:51:59 437.465
NOAA 15 10 Dec 15:51:17 15:53:58 14° 58° (ENE) 15:56:38 137.62
KKS-1 10 Dec 15:53:38 15:57:50 38° 98° (E) 16:02:00 437.445
BRITE-PL 10 Dec 15:59:12 16:03:28 47° 71° (ENE) 16:08:04 437.365/2234.400
MOZHAYETS 4 10 Dec 15:59:45 16:04:18 73° 286° (WNW) 16:08:51
O/OREOS (USA 219) 10 Dec 16:05:33 16:09:28 28° 302° (WNW) 16:13:23 437.305
HORYU 2 10 Dec 16:06:19 16:10:35 45° 71° (ENE) 16:14:52 437.375
ITUPSAT 1 10 Dec 16:10:22 16:13:40 19° 297° (WNW) 16:16:57 437.325
Cubesat XI-IV 10 Dec 16:11:17 16:15:02 20° 61° (ENE) 16:18:47 437.490
CUBESAT XI-V 10 Dec 16:16:21 16:20:15 26° 94° (E) 16:24:08 437.345
AO-7 10 Dec 16:26:29 16:32:30 22° 268° (W) 16:38:36 29.400- 29.500
ISS 10 Dec 16:31:04 16:33:49 24° 344° (NNW) 16:36:35 145.825
DOVE 4 10 Dec 16:32:40 16:36:27 22° 63° (ENE) 16:40:21 437.250
NOAA 18 10 Dec 16:35:01 16:39:09 22° 61° (ENE) 16:43:18 137.9125
AUBIESAT-1 10 Dec 16:39:31 16:41:55 14° 305° (NW) 16:44:16 437.475
AIST 2 10 Dec 16:45:54 16:48:53 19° 249° (WSW) 16:51:51 435.215
GOMX 1 10 Dec 16:46:46 16:51:26 62° 73° (ENE) 16:56:28 467.674
RS-15 10 Dec 16:50:09 17:01:45 50° 250° (WSW) 17:12:58 29.354- 29.394
CINEMA 3 10 Dec 17:15:10 17:18:06 16° 61° (ENE) 17:21:03 145.822/145.860
HO-68 10 Dec 17:19:20 17:24:39 23° 56° (NE) 17:30:00 435.675
CUTE-I 10 Dec 17:21:32 17:26:53 77° 75° (ENE) 17:32:17 437.470
STARS 10 Dec 17:21:45 17:26:03 52° 288° (WNW) 17:30:18 437.465
Cosmos 2491 10 Dec 17:25:25 17:34:10 73° 80° (E) 17:42:51 435.465 / 435.565
NOAA 15 10 Dec 17:27:46 17:33:00 85° 254° (WSW) 17:38:18 137.62
LilacSat-2 10 Dec 17:29:04 17:32:54 81° 256° (WSW) 17:36:45 437.200
KKS-1 10 Dec 17:30:43 17:34:09 22° 295° (WNW) 17:37:34 437.445
CUTE 1.7 + AOD 2 10 Dec 17:33:26 17:34:28 11° 61° (ENE) 17:35:31 437.475
BRITE-PL 10 Dec 17:39:22 17:42:20 17° 271° (W) 17:45:26 437.365/2234.400
HORYU 2 10 Dec 17:44:18 17:47:22 18° 267° (W) 17:50:25 437.375
Cosmos 2504 10 Dec 17:44:59 17:50:38 20° 76° (ENE) 17:56:23 435.465 / 435.565
Cubesat XI-IV 10 Dec 17:49:17 17:54:36 63° 258° (WSW) 17:59:57 437.490
CANX-2 10 Dec 17:50:22 17:53:20 19° 66° (ENE) 17:56:19 2200.000
YUBILEINY 10 Dec 17:51:49 17:59:53 44° 87° (E) 18:08:00 435.215
CUBESAT XI-V 10 Dec 17:53:26 17:57:39 34° 291° (WNW) 18:01:53 437.345
SEEDS 10 Dec 18:05:23 18:07:59 16° 64° (ENE) 18:10:35 437.485
COMPASS 1 10 Dec 18:07:19 18:08:39 11° 62° (ENE) 18:09:59 437.405
ISS 10 Dec 18:08:41 18:11:07 19° 5° (N) 18:13:33 145.825
DOVE 4 10 Dec 18:08:57 18:13:44 50° 262° (W) 18:18:47 437.250
NOAA 18 10 Dec 18:13:55 18:19:22 58° 259° (WSW) 18:24:52 137.9125
SO-50 10 Dec 18:14:37 18:18:51 32° 115° (ESE) 18:23:03 436.795
CUSAT 1 10 Dec 18:20:25 18:22:39 14° 72° (ENE) 18:25:08 437.405
PCSat 10 Dec 18:26:57 18:31:48 32° 49° (NE) 18:36:37 145.827
GOMX 1 10 Dec 18:27:17 18:30:02 15° 272° (W) 18:32:56 467.674
CUBEBUG 2 10 Dec 18:34:16 18:37:59 23° 66° (ENE) 18:41:39 437.445
AIST 1 10 Dec 18:34:21 18:38:12 32° 91° (E) 18:42:07
STRAND 1 10 Dec 18:42:01 18:46:24 28° 95° (E) 18:50:46 437.568
CINEMA 3 10 Dec 18:49:39 18:54:37 72° 259° (W) 18:59:40 145.822/145.860
AAUSAT CUBESAT 2 10 Dec 19:04:20 19:08:04 35° 71° (ENE) 19:11:49 437.432
HO-68 10 Dec 19:04:28 19:11:38 78° 255° (WSW) 19:18:52 435.675
CUTE-I 10 Dec 19:04:47 19:07:31 14° 271° (W) 19:10:17 437.470
UWE-3 10 Dec 19:05:23 19:09:24 30° 69° (ENE) 19:13:22 435.000/436.395/437.385
CUTE 1.7 + AOD 2 10 Dec 19:05:29 19:09:41 77° 258° (WSW) 19:13:54 437.475
NOAA 15 10 Dec 19:12:54 19:13:33 10° 273° (W) 19:14:12 137.62
Cosmos 2491 10 Dec 19:23:33 19:30:06 25° 280° (W) 19:36:39 435.465 / 435.565
CANX-2 10 Dec 19:24:58 19:28:55 39° 262° (W) 19:32:53 2200.000
Cosmos 2504 10 Dec 19:34:11 19:42:43 90° 295° (WNW) 19:51:39 435.465 / 435.565
ZACube-1 10 Dec 19:34:30 19:38:38 36° 70° (ENE) 19:42:42 437.345
FUNcube-1 10 Dec 19:39:07 19:43:16 37° 71° (ENE) 19:47:20 145.935
SEEDS 10 Dec 19:39:19 19:43:19 46° 261° (W) 19:47:20 437.485
COMPASS 1 10 Dec 19:39:31 19:43:37 70° 259° (WSW) 19:47:45 437.405
ISS 10 Dec 19:45:07 19:48:16 39° 25° (NNE) 19:51:24 145.825
YUBILEINY 10 Dec 19:48:32 19:56:40 43° 288° (WNW) 20:04:56 435.215
SO-50 10 Dec 19:54:56 19:59:17 35° 313° (NW) 20:03:36 436.795
DANDE 10 Dec 19:56:42 19:59:22 26° 78° (ENE) 20:02:35 436.750
CUSAT 1 10 Dec 20:00:30 20:04:32 57° 262° (W) 20:09:49 437.405
Oscar 11 10 Dec 20:02:47 20:07:02 63° 74° (ENE) 20:11:18 145.826/435.025
PRISM 10 Dec 20:03:19 20:04:18 11° 90° (E) 20:05:19 437.425
CUBEBUG 2 10 Dec 20:09:54 20:14:22 40° 263° (W) 20:18:47 437.445
PCSat 10 Dec 20:10:12 20:15:19 42° 247° (WSW) 20:20:23 145.827
AIST 1 10 Dec 20:12:27 20:15:51 22° 288° (WNW) 20:19:18
HUMSAT D 10 Dec 20:17:29 20:20:20 18° 65° (ENE) 20:23:10 437.325/437.525
STRAND 1 10 Dec 20:20:59 20:25:36 36° 293° (WNW) 20:30:13 437.568
AAUSAT CUBESAT 2 10 Dec 20:40:40 20:43:38 19° 267° (W) 20:46:38 437.432
UWE-3 10 Dec 20:41:48 20:45:48 29° 265° (W) 20:49:47 435.000/436.395/437.385
DELFI C3 10 Dec 20:51:47 20:55:41 79° 76° (ENE) 20:59:38 145.870
HO-68 10 Dec 20:57:14 21:00:27 13° 273° (W) 21:03:41 435.675
TIGRISAT 10 Dec 21:03:48 21:04:58 11° 88° (E) 21:06:08 435.000
ANTELSAT 10 Dec 21:06:02 21:07:55 13° 89° (E) 21:09:49 437.575/2403.000
ZACube-1 10 Dec 21:11:27 21:14:59 22° 266° (W) 21:18:30 437.345
FUNcube-1 10 Dec 21:16:07 21:19:35 22° 266° (W) 21:23:01 145.935
ESTCUBE 1 10 Dec 21:20:57 21:23:24 15° 62° (ENE) 21:25:52 437.505/2401.250
ISS 10 Dec 21:21:44 21:24:43 31° 222° (SW) 21:27:40 145.825
Cosmos 2504 10 Dec 21:31:13 21:37:25 21° 299° (WNW) 21:43:49 435.465 / 435.565
PRISM 10 Dec 21:35:53 21:40:01 67° 287° (WNW) 21:44:10 437.425
DANDE 10 Dec 21:40:08 21:41:56 14° 265° (W) 21:43:57 436.750
Oscar 11 10 Dec 21:41:54 21:43:35 12° 271° (W) 21:45:15 145.826/435.025
VELOX 1 10 Dec 21:43:29 21:44:08 10° 59° (ENE) 21:44:48 145.980
HUMSAT D 10 Dec 21:51:42 21:55:39 41° 262° (W) 21:59:36 437.325/437.525
UNISAT 6 10 Dec 22:09:30 22:13:51 63° 101° (E) 22:18:05 437.425
Cosmos 2499 10 Dec 22:21:50 22:27:11 18° 76° (ENE) 22:32:37 435.465 / 435.565
PHONESAT 2.4 10 Dec 22:25:06 22:27:19 23° 161° (SSE) 22:29:31 2401.200-2431.200
JAS-2 10 Dec 22:31:38 22:35:48 23° 94° (E) 22:40:08 435.910
GONETS M04 10 Dec 22:33:28 22:38:58 19° 77° (ENE) 22:44:29
TIGRISAT 10 Dec 22:37:50 22:42:10 68° 286° (WNW) 22:46:24 435.000
AISAT 10 Dec 22:39:15 22:43:23 39° 70° (ENE) 22:47:33 437.250
ANTELSAT 10 Dec 22:40:45 22:45:04 59° 286° (WNW) 22:49:15 437.575/2403.000
CUBEBUG 1 10 Dec 22:50:42 22:55:02 73° 76° (ENE) 22:59:28 437.445
ESTCUBE 1 10 Dec 22:55:16 22:59:42 62° 259° (W) 23:04:09 437.505/2401.250
UKube-1 10 Dec 23:07:52 23:11:38 30° 68° (ENE) 23:15:26 .
SPROUT 10 Dec 23:08:41 23:12:50 49° 72° (ENE) 23:17:01 437.525
DX 1 10 Dec 23:11:02 23:15:09 43° 71° (ENE) 23:19:19 434.975-435.025
NANOSAT C BR1 10 Dec 23:13:38 23:17:24 31° 97° (E) 23:21:08 145.865
VELOX 1 10 Dec 23:15:26 23:19:51 90° 83° (E) 23:24:20 145.980
QB50P2 10 Dec 23:24:36 23:28:43 48° 99° (E) 23:32:47 145.880/145.840
POLYITAN 1 10 Dec 23:25:00 23:29:04 45° 99° (E) 23:33:06 437.675
50 SAT 10 Dec 23:28:33 23:32:02 71° 258° (WSW) 23:35:34 437.505
DUCHIFAT 1 10 Dec 23:32:46 23:36:51 46° 99° (E) 23:40:52 145.980
QB50P1 10 Dec 23:36:10 23:40:22 60° 101° (ESE) 23:44:31 145.935-145.965
UNISAT 6 10 Dec 23:47:54 23:50:01 13° 299° (WNW) 23:52:06 437.425
AO-85 10 Dec 23:58:04 00:02:14 28° 115° (ESE) 00:06:10 145.980
POPSAT HIP 1 10 Dec 23:58:14 00:02:30 78° 284° (WNW) 00:06:41 437.405
PHONESAT 2.4 10 Dec 23:59:37 00:02:11 46° 178° (S) 00:04:44 2401.200-2431.200
BUGSAT 1 11 Dec 00:07:36 00:11:36 42° 99° (E) 00:15:30 437.445
Cosmos 2499 11 Dec 00:10:14 00:18:55 84° 96° (E) 00:27:53 435.465 / 435.565
TISAT 1 11 Dec 00:11:24 00:15:21 40° 71° (ENE) 00:19:21 437.305
JAS-2 11 Dec 00:16:09 00:21:06 45° 290° (WNW) 00:26:22 435.910
AISAT 11 Dec 00:16:41 00:19:59 20° 267° (W) 00:23:19 437.250
AUBIESAT-1 11 Dec 00:17:56 00:19:59 13° 54° (NE) 00:22:07 437.475
GONETS M04 11 Dec 00:25:49 00:34:32 89° 278° (W) 00:43:17
CUBEBUG 1 11 Dec 00:30:47 00:31:50 11° 271° (W) 00:32:53 437.445
M-CUBED/EXP-1 PRIME 11 Dec 00:33:23 00:36:42 22° 59° (ENE) 00:40:10 437.505
O/OREOS (USA 219) 11 Dec 00:34:32 00:39:02 72° 66° (ENE) 00:43:29 437.305
UKube-1 11 Dec 00:44:05 00:47:39 25° 265° (W) 00:51:15 .
SPROUT 11 Dec 00:46:29 00:49:02 15° 269° (W) 00:51:36 437.525
DX 1 11 Dec 00:48:35 00:51:33 18° 267° (W) 00:54:32 434.975-435.025
NANOSAT C BR1 11 Dec 00:49:36 00:52:58 24° 293° (WNW) 00:56:19 145.865
QB50P2 11 Dec 01:01:28 01:04:08 16° 296° (WNW) 01:06:47 145.880/145.840
POLYITAN 1 11 Dec 01:01:45 01:04:31 17° 296° (WNW) 01:07:16 437.675
Oscar 19 11 Dec 01:03:38 01:08:32 40° 98° (E) 01:13:25 437.125/150
SWISSCUBE 11 Dec 01:04:38 01:08:57 35° 68° (ENE) 01:13:17 437.505
BEESAT 11 Dec 01:08:06 01:12:24 35° 68° (ENE) 01:16:42 436.000
DUCHIFAT 1 11 Dec 01:09:28 01:12:09 17° 296° (WNW) 01:14:49 145.980
QB50P1 11 Dec 01:13:31 01:15:37 14° 298° (WNW) 01:17:43 145.935-145.965
MOZHAYETS 4 11 Dec 01:27:53 01:30:08 14° 61° (ENE) 01:32:25
PHONESAT 2.4 11 Dec 01:34:43 01:37:07 31° 194° (SSW) 01:39:29 2401.200-2431.200
AO-85 11 Dec 01:38:01 01:42:33 39° 310° (NW) 01:46:47 145.980
ITUPSAT 1 11 Dec 01:38:58 01:43:42 68° 73° (ENE) 01:48:27 437.325
Gurwin Techsat 1B 11 Dec 01:43:24 01:48:34 48° 100° (E) 01:53:41 435.225
BUGSAT 1 11 Dec 01:43:51 01:46:37 18° 296° (WNW) 01:49:23 437.445
ITAMSAT 1 11 Dec 01:46:54 01:48:10 11° 88° (E) 01:49:27 435.822/435.867
TISAT 1 11 Dec 01:48:09 01:51:09 19° 267° (W) 01:54:09 437.305
AUBIESAT-1 11 Dec 01:49:24 01:53:42 81° 252° (WSW) 01:58:16 437.475
Cosmos 2499 11 Dec 02:06:31 02:13:11 23° 297° (WNW) 02:19:58 435.465 / 435.565
M-CUBED/EXP-1 PRIME 11 Dec 02:06:47 02:10:50 43° 257° (WSW) 02:15:10 437.505
O/OREOS (USA 219) 11 Dec 02:16:31 02:17:46 11° 263° (W) 02:19:00 437.305
GONETS M04 11 Dec 02:26:40 02:32:40 20° 299° (WNW) 02:38:43
AO-7 11 Dec 02:32:02 02:38:39 25° 93° (E) 02:45:11 29.400- 29.500
SWISSCUBE 11 Dec 02:42:50 02:46:47 26° 265° (W) 02:50:45 437.505
Oscar 19 11 Dec 02:43:20 02:47:40 27° 295° (WNW) 02:51:59 437.125/150
STARS 11 Dec 02:44:23 02:47:13 17° 63° (ENE) 02:50:03 437.465
SO-50 11 Dec 02:44:46 02:49:03 38° 48° (NE) 02:53:13 436.795
BEESAT 3 11 Dec 02:45:44 02:48:30 19° 112° (ESE) 02:51:18 437.485
BEESAT 11 Dec 02:46:12 02:50:12 26° 265° (W) 02:54:13 436.000
KKS-1 11 Dec 02:52:20 02:56:30 40° 70° (ENE) 03:00:43 437.445
MOZHAYETS 4 11 Dec 03:02:10 03:06:44 70° 258° (WSW) 03:11:18
ITUPSAT 1 11 Dec 03:19:41 03:22:00 13° 270° (W) 03:24:19 437.325
CUBESAT XI-V 11 Dec 03:20:35 03:24:28 28° 67° (ENE) 03:28:22 437.345
ITAMSAT 1 11 Dec 03:23:08 03:28:21 90° 120° (ESE) 03:33:31 435.822/435.867
Gurwin Techsat 1B 11 Dec 03:24:01 03:28:11 24° 297° (WNW) 03:32:21 435.225
BEESAT 2 11 Dec 03:26:28 03:29:37 23° 114° (ESE) 03:32:49 435.950
YUBILEINY 11 Dec 04:00:51 04:07:35 23° 63° (ENE) 04:14:16 435.215
BRITE-PL 11 Dec 04:02:57 04:06:50 19° 90° (E) 04:10:44 437.365/2234.400
STARS 11 Dec 04:18:49 04:23:09 52° 260° (W) 04:27:31 437.465
BEESAT 3 11 Dec 04:22:09 04:25:51 40° 310° (NW) 04:29:36 437.485
AO-7 11 Dec 04:23:44 04:32:06 75° 292° (WNW) 04:40:26 29.400- 29.500
SO-50 11 Dec 04:25:34 04:29:20 26° 246° (WSW) 04:33:02 436.795
KKS-1 11 Dec 04:29:53 04:33:13 20° 267° (W) 04:36:34 437.445
Cosmos 2491 11 Dec 04:35:47 04:40:33 16° 75° (ENE) 04:45:18 435.465 / 435.565
GOMX 1 11 Dec 04:48:06 04:52:13 21° 91° (E) 04:56:15 467.674
CUBESAT XI-V 11 Dec 04:57:42 05:01:45 31° 264° (W) 05:05:51 437.345
BEESAT 2 11 Dec 05:03:38 05:07:15 34° 311° (NW) 05:10:55 435.950
RS-15 11 Dec 05:03:40 05:12:59 29° 101° (ESE) 05:22:35 29.354- 29.394
ITAMSAT 1 11 Dec 05:04:42 05:07:02 13° 303° (WNW) 05:09:24 435.822/435.867
Cosmos 2504 11 Dec 05:26:31 05:34:31 38° 70° (ENE) 05:42:01 435.465 / 435.565
HORYU 2 11 Dec 05:32:22 05:36:49 80° 104° (ESE) 05:41:13 437.375
CUTE-I 11 Dec 05:38:06 05:42:39 28° 95° (E) 05:47:10 437.470
BRITE-PL 11 Dec 05:40:09 05:45:39 66° 286° (WNW) 05:51:17 437.365/2234.400
NOAA 15 11 Dec 05:42:09 05:46:56 33° 97° (E) 05:51:41 137.62
YUBILEINY 11 Dec 05:56:35 06:05:28 82° 264° (W) 06:14:17 435.215
STRAND 1 11 Dec 05:58:34 06:03:26 45° 70° (ENE) 06:08:19 437.568
Cubesat XI-IV 11 Dec 06:05:33 06:10:44 49° 100° (E) 06:15:51 437.490
DOVE 4 11 Dec 06:06:51 06:11:55 47° 97° (E) 06:16:46 437.250
AIST 1 11 Dec 06:17:07 06:21:33 82° 263° (W) 06:25:56
AO-7 11 Dec 06:18:10 06:23:31 19° 313° (NW) 06:28:53 29.400- 29.500
GOMX 1 11 Dec 06:25:12 06:30:35 56° 288° (WNW) 06:35:53 467.674
Cosmos 2491 11 Dec 06:27:08 06:35:55 81° 95° (E) 06:44:40 435.465 / 435.565
HO-68 11 Dec 06:32:28 06:37:26 19° 90° (E) 06:42:20 435.675
NOAA 18 11 Dec 06:34:55 06:40:22 56° 101° (E) 06:45:45 137.9125
LilacSat-2 11 Dec 06:35:36 06:39:19 59° 285° (WNW) 06:43:01 437.200
AIST 2 11 Dec 06:42:43 06:46:48 72° 120° (ESE) 06:50:57 435.215
CINEMA 3 11 Dec 06:44:19 06:48:16 26° 93° (E) 06:52:03 145.822/145.860
CUTE 1.7 + AOD 2 11 Dec 06:50:21 06:53:08 17° 92° (E) 06:55:54 437.475
CANX-2 11 Dec 07:08:49 07:12:36 31° 96° (E) 07:16:22 2200.000
HORYU 2 11 Dec 07:11:13 07:12:42 12° 301° (WNW) 07:14:12 437.375
RS-15 11 Dec 07:12:10 07:24:02 84° 304° (NW) 07:36:28 29.354- 29.394
CUTE-I 11 Dec 07:17:52 07:22:47 39° 292° (WNW) 07:27:41 437.470
Cosmos 2504 11 Dec 07:19:50 07:28:07 50° 272° (W) 07:35:54 435.465 / 435.565
NOAA 15 11 Dec 07:21:58 07:26:39 33° 294° (WNW) 07:31:20 137.62
BRITE-PL 11 Dec 07:22:01 07:23:08 11° 303° (WNW) 07:24:15 437.365/2234.400
COMPASS 1 11 Dec 07:22:10 07:24:57 17° 92° (E) 07:27:42 437.405
SEEDS 11 Dec 07:22:17 07:25:48 25° 95° (E) 07:29:19 437.485
STRAND 1 11 Dec 07:38:48 07:42:48 23° 267° (W) 07:46:50 437.568
DOVE 4 11 Dec 07:45:07 07:49:16 24° 296° (WNW) 07:53:17 437.250
Cubesat XI-IV 11 Dec 07:46:18 07:50:29 24° 297° (WNW) 07:54:38 437.490
Oscar 11 11 Dec 07:51:36 07:52:35 11° 89° (E) 07:53:32 145.826/435.025
YUBILEINY 11 Dec 07:55:51 08:00:46 16° 285° (WNW) 08:05:42 435.215
CUBEBUG 2 11 Dec 07:59:52 08:03:56 39° 97° (E) 08:07:51 437.445
TIGRISAT 11 Dec 08:02:53 08:05:09 14° 62° (ENE) 08:07:25 435.000
ANTELSAT 11 Dec 08:05:28 08:08:08 15° 62° (ENE) 08:10:46 437.575/2403.000
NOAA 18 11 Dec 08:16:24 08:20:37 23° 299° (WNW) 08:24:47 137.9125
HO-68 11 Dec 08:18:39 08:25:53 80° 288° (WNW) 08:33:05 435.675
AAUSAT CUBESAT 2 11 Dec 08:20:18 08:24:25 58° 100° (E) 08:28:31 437.432
CINEMA 3 11 Dec 08:21:13 08:25:25 32° 292° (WNW) 08:29:27 145.822/145.860
AIST 2 11 Dec 08:23:06 08:25:45 16° 321° (NW) 08:28:26 435.215
CUTE 1.7 + AOD 2 11 Dec 08:25:10 08:29:10 42° 288° (WNW) 08:33:10 437.475
PRISM 11 Dec 08:25:41 08:29:45 84° 257° (WSW) 08:33:52 437.425
Cosmos 2491 11 Dec 08:27:11 08:33:48 23° 297° (WNW) 08:40:28 435.465 / 435.565
AO-85 11 Dec 08:28:30 08:31:59 27° 46° (NE) 08:35:20 145.980
UWE-3 11 Dec 08:29:54 08:34:05 53° 99° (E) 08:38:08 435.000/436.395/437.385
CANX-2 11 Dec 08:44:55 08:48:18 24° 293° (WNW) 08:51:41 2200.000
JAS-2 11 Dec 08:48:01 08:50:22 13° 58° (ENE) 08:52:39 435.910
COMPASS 1 11 Dec 08:56:44 09:00:40 41° 288° (WNW) 09:04:36 437.405
SEEDS 11 Dec 08:57:51 09:01:27 28° 291° (WNW) 09:05:03 437.485
